Location: Frizzleburg
(41.0764°N, 80.4548°W)
Time: 03:03:46
(UTC+00:00)

METEOR-M - Pass Details

Date: 17 November 2019
Orbit: 816 x 820 km, 98.4° (Epoch: 15 December)

Event Time Altitude Azimuth Distance (km) Brightness Sun altitude
Rises 10:37:46 0° 15° (NNE) 3,352 7.4 -17.7°
Reaches altitude 10° 10:40:08 10° 18° (NNE) 2,415 6.7 -17.2°
Maximum altitude 10:45:28 71° 102° (ESE) 864 4.4 -16.2°
Drops below altitude 10° 10:50:46 10° 186° (S) 2,400 6.6 -15.3°
Sets 10:53:07 0° 189° (S) 3,328 7.4 -14.8°
